www.pogodaiklimat.ru

Погода и климат >> Архив погоды >> Япония >> Танегасима


ПОГОДА на Танегасиме

  • Прогноз погоды на Танегасиме
  • Монитор погоды на Танегасиме

АРХИВ ПОГОДЫ на Танегасиме

Время (UTC), дата Ветер
(напр.,м/с)
 
Видим.   Явления Облачность Т
(С)
Тd
(С)
f
(%)
Тe
(С)
Тes
(С)
Комфортность P
(гПа)
Po
(гПа)
Тmin
(С)
Tmax
(С)
R
(мм)
R24
(мм)
S
(см)
16 18.06 В 2 6000 м слаб. дождь н/о +19.8 +19.5 98 +24 +24 комфорт 1010.1 1005.7
17 18.06 В 2 4300 м дождь н/о +19.4 +19.1 98 +23 +23 комфорт 1009.5 1005.1
18 18.06 В 3 3300 м дождь н/о +19.1 +19.1 100 +21 +21 комфорт 1008.4 1004.0 11
19 18.06 В 4 3100 м дождь н/о +19.2 +19.2 100 +21 +21 комфорт 1007.5 1003.1
20 18.06 В 5 2700 м дождь н/о +19.4 +19.4 100 +22 +22 комфорт 1007.0 1002.6
21 18.06 В 4 2700 м дождь н/о +19.6 +19.6 100 +22 +22 комфорт 1006.4 1002.0
22 18.06 В 5 4900 м дождь н/о +19.7 +19.7 100 +23 +23 комфорт 1006.1 1001.7
23 18.06 В 4 2800 м дождь н/о +20.0 +20.0 100 +24 +24 комфорт 1006.2 1001.8
00 19.06 В 6 6000 м слаб. дождь н/о +20.3 +20.1 99 +24 +24 комфорт 1005.6 1001.2 +19.0 48
01 19.06 В 6 3300 м дождь н/о +20.1 +20.0 99 +23 +23 комфорт 1005.1 1000.7
02 19.06 В 6 5000 м дождь н/о +20.6 +20.4 99 +25 +25 комфорт 1004.9 1000.6
03 19.06 В 5 6000 м слаб. дождь н/о +21.1 +20.8 98 +26 +26 душно 1004.7 1000.4
04 19.06 В 6 7000 м слаб. дождь н/о +21.7 +21.2 97 +28 +28 душно 1003.5 999.2
05 19.06 В 8 20 км в посл. час дождь н/о +22.7 +21.0 90 +30 +30 очень
душно
1003.1 998.8
06 19.06 В 6 6000 м слаб. дождь н/о +22.4 +21.4 94 +29 +29 очень
душно
1003.3 999.0 11
07 19.06 СВ 6 10 км слаб. дождь н/о +22.2 +21.4 95 +29 +29 очень
душно
1003.3 999.0
08 19.06 В 7 20 км в посл. час дождь н/о +22.8 +21.4 92 +30 +30 очень
душно
1003.2 998.9
09 19.06 СВ 6 20 км слаб. дождь н/о +22.5 +21.0 91 +29 +29 очень
душно
1003.5 999.2
10 19.06 СВ 5 20 км в посл. час дождь н/о +22.4 +20.9 91 +29 +29 очень
душно
1004.0 999.7
11 19.06 В 5 20 км н/о +22.1 +21.1 94 +29 +29 очень
душно
1004.3 1000.0
12 19.06 В 6 17 км {дождь} н/о +22.4 +20.5 89 +29 +29 очень
душно
1004.6 1000.3 +23.2 11
13 19.06 СВ 3 16 км н/о +22.2 +20.7 91 +29 +29 очень
душно
1005.3 1001.0
14 19.06 СВ 3 16 км н/о +22.2 +21.0 93 +29 +29 очень
душно
1005.6 1001.3
15 19.06 СВ 2 15 км н/о +22.0 +20.8 93 +28 +28 душно 1005.5 1001.2
16 19.06 СВ 2 11 км н/о +21.3 +20.8 97 +27 +27 душно 1005.5 1001.2
17 19.06 СВ 2 10 км н/о +20.8 +20.5 98 +26 +26 душно 1005.5 1001.2
18 19.06 СВ 2 10 км н/о +20.7 +20.2 97 +26 +26 душно 1005.6 1001.3
19 19.06 В 2 10 км н/о +20.2 +19.7 97 +25 +25 комфорт 1006.0 1001.6
20 19.06 СВ 2 10 км н/о +20.3 +19.7 96 +25 +25 комфорт 1006.2 1001.8
21 19.06 СВ 2 13 км н/о +20.4 +19.6 95 +25 +25 комфорт 1006.9 1002.5
22 19.06 СВ 1 19 км н/о +22.6 +20.0 85 +29 +29 очень
душно
1007.3 1003.0
23 19.06 С 1 20 км н/о +24.3 +20.6 80 +30 +30 очень
душно
1007.5 1003.2
00 20.06 З 2 17 км н/о +24.1 +20.6 81 +30 +30 очень
душно
1007.8 1003.5 +19.8
01 20.06 СЗ 3 20 км н/о +24.4 +20.3 78 +30 +30 очень
душно
1007.7 1003.4
02 20.06 СЗ 2 20 км н/о +24.9 +20.2 75 +31 +31 очень
душно
1007.8 1003.5
03 20.06 С 3 20 км н/о +26.2 +20.5 71 +33 +33 очень
душно
1007.6 1003.3
04 20.06 ЮЗ 3 20 км н/о +26.9 +21.4 72 +34 +34 очень
душно
1007.1 1002.8
05 20.06 В 3 20 км н/о +28.1 +20.1 62 +34 +34 очень
душно
1007.0 1002.8
06 20.06 Ю 2 20 км н/о +27.4 +20.7 67 +34 +34 очень
душно
1007.4 1003.2
07 20.06 З 3 20 км н/о +27.0 +21.3 71 +34 +34 очень
душно
1007.2 1002.9
08 20.06 ЮВ 2 20 км н/о +26.5 +20.8 71 +33 +33 очень
душно
1007.3 1003.0
09 20.06 ЮВ 2 20 км н/о +25.2 +21.5 80 +32 +32 очень
душно
1007.4 1003.1
10 20.06 ЮВ 3 17 км н/о +24.3 +21.6 85 +31 +31 очень
душно
1007.6 1003.3
11 20.06 Ю 3 15 км н/о +23.4 +21.7 90 +32 +32 очень
душно
1008.2 1003.9
12 20.06 ЮВ 2 14 км н/о +22.8 +21.6 93 +30 +30 очень
душно
1008.5 1004.2 +28.8
13 20.06 Ю 2 13 км н/о +22.5 +21.3 93 +30 +30 очень
душно
1008.5 1004.2
15 20.06 ЮВ 2 10 км н/о +21.7 +21.0 96 +28 +28 душно 1008.2 1003.9
16 20.06 В 1 9000 м дымка н/о +21.2 +20.7 97 +26 +26 душно 1007.6 1003.3
17 20.06 ЮВ 3 10 км н/о +21.2 +20.7 97 +26 +26 душно 1006.8 1002.5
18 20.06 В 2 10 км н/о +21.3 +20.8 97 +27 +27 душно 1006.4 1002.1
19 20.06 В 2 12 км н/о +21.6 +21.1 97 +28 +28 очень
душно
1006.5 1002.2
20 20.06 В 3 13 км н/о +21.6 +21.1 97 +28 +28 очень
душно
1006.7 1002.4
21 20.06 В 2 15 км н/о +21.9 +21.4 97 +28 +28 душно 1007.1 1002.8
22 20.06 В 2 16 км слаб. дождь н/о +22.6 +21.9 96 +30 +30 очень
душно
1007.5 1003.2
23 20.06 В 3 10 км слаб. дождь н/о +22.7 +22.4 98 +31 +31 очень
душно
1007.0 1002.7
00 21.06 ЮВ 4 20 км слаб. дождь н/о +23.4 +22.6 95 +32 +32 очень
душно
1005.9 1001.6 +21.1 0.5
01 21.06 В 4 20 км в посл. час дождь н/о +24.4 +22.8 91 +32 +32 очень
душно
1006.3 1002.0
02 21.06 В 5 20 км слаб. дождь н/о +24.7 +22.8 89 +33 +33 очень
душно
1005.8 1001.5
03 21.06 ЮВ 5 20 км в посл. час дождь н/о +25.5 +22.8 85 +34 +34 очень
душно
1004.9 1000.6
04 21.06 ЮВ 4 20 км н/о +24.9 +22.2 85 +32 +32 очень
душно
1005.0 1000.7
05 21.06 ЮВ 3 8000 м слаб. дождь н/о +23.8 +22.4 92 +31 +31 очень
душно
1004.9 1000.6
06 21.06 ЮВ 3 7000 м слаб. дождь н/о +22.9 +22.4 97 +31 +31 очень
душно
1003.9 999.6 3
07 21.06 В 2 10 км слаб. дождь н/о +21.9 +21.2 96 +28 +28 душно 1004.0 999.7
08 21.06 В 3 20 км слаб. дождь н/о +21.7 +20.4 92 +27 +27 душно 1003.4 999.1
09 21.06 ЮВ 2 18 км слаб. дождь н/о +21.5 +21.2 98 +27 +27 душно 1003.4 999.1
10 21.06 В 3 10 км слаб. дождь н/о +21.5 +21.3 99 +27 +27 душно 1003.5 999.2
11 21.06 СВ 1 20 км слаб. дождь н/о +21.3 +20.8 97 +27 +27 душно 1003.8 999.5
12 21.06 СВ 1 20 км в посл. час дождь н/о +21.6 +21.3 98 +28 +28 очень
душно
1004.0 999.7 +26.1 9
13 21.06 В 1 13 км слаб. дождь н/о +21.5 +21.3 99 +27 +27 душно 1004.6 1000.3
15 21.06 СВ 2 18 км в посл. час дождь н/о +21.5 +21.3 99 +27 +27 душно 1003.8 999.5
16 21.06 СВ 2 16 км н/о +21.6 +21.3 98 +28 +28 очень
душно
1003.3 999.0
17 21.06 В 2 12 км н/о +21.4 +21.4 100 +27 +27 душно 1003.1 998.8
18 21.06 СВ 2 16 км {дождь} н/о +21.4 +21.4 100 +27 +27 душно 1003.1 998.8 0.5
19 21.06 СВ 2 17 км н/о +21.4 +21.4 100 +27 +27 душно 1003.4 999.1
20 21.06 СВ 1 15 км н/о +21.4 +21.4 100 +27 +27 душно 1003.5 999.2
21 21.06 С 2 18 км н/о +21.7 +21.4 98 +28 +28 душно 1003.8 999.5
22 21.06 СВ 1 20 км н/о +23.3 +21.8 91 +32 +32 очень
душно
1004.1 999.8
23 21.06 С 2 20 км н/о +24.2 +21.3 84 +31 +31 очень
душно
1004.4 1000.1
00 22.06 С 4 20 км н/о +24.2 +21.3 84 +31 +31 очень
душно
1004.5 1000.2 +21.1 0.5
01 22.06 С 3 20 км н/о +25.5 +21.8 80 +33 +33 очень
душно
1004.6 1000.3
02 22.06 СВ 5 20 км н/о +27.4 +22.4 74 +36 +36 очень
душно
1004.4 1000.2
03 22.06 В 4 20 км н/о +28.0 +21.8 69 +36 +36 очень
душно
1004.3 1000.1
04 22.06 В 5 20 км н/о +27.8 +21.4 68 +35 +35 очень
душно
1004.3 1000.1
05 22.06 В 5 20 км н/о +26.8 +22.4 77 +35 +35 очень
душно
1004.0 999.8
06 22.06 В 5 20 км н/о +26.9 +21.7 73 +34 +34 очень
душно
1003.6 999.4
08 22.06 В 3 20 км н/о +26.4 +22.0 77 +34 +34 очень
душно
1002.9 998.7
09 22.06 В 3 20 км н/о +25.4 +21.9 81 +33 +33 очень
душно
1003.1 998.8
10 22.06 В 2 20 км н/о +24.2 +22.1 88 +31 +31 очень
душно
1003.3 999.0
11 22.06 СВ 2 20 км н/о +24.0 +21.9 88 +31 +31 очень
душно
1003.6 999.3
12 22.06 СВ 3 20 км н/о +23.7 +22.3 92 +31 +31 очень
душно
1003.5 999.2 +28.1
13 22.06 СВ 2 20 км н/о +23.3 +22.3 94 +32 +32 очень
душно
1004.0 999.7
14 22.06 СВ 2 20 км н/о +23.1 +22.1 94 +31 +31 очень
душно
1003.7 999.4
15 22.06 СВ 1 20 км н/о +22.9 +21.9 94 +31 +31 очень
душно
1003.9 999.6
16 22.06 В 1 20 км н/о +22.4 +21.7 96 +30 +30 очень
душно
1003.3 999.0
17 22.06 В 2 18 км н/о +22.1 +21.8 98 +29 +29 очень
душно
1003.2 998.9
18 22.06 С 1 19 км н/о +22.1 +21.6 97 +29 +29 очень
душно
1003.5 999.2
19 22.06 ЮВ 1 18 км н/о +21.9 +21.6 98 +28 +28 душно 1003.4 999.1
20 22.06 В 1 18 км н/о +21.8 +21.6 99 +28 +28 душно 1003.5 999.2
21 22.06 В 2 15 км н/о +21.7 +21.5 99 +28 +28 душно 1003.7 999.4
22 22.06 ЮВ 1 20 км н/о +22.5 +22.2 98 +30 +30 очень
душно
1004.4 1000.1
23 22.06 ЮВ 1 20 км н/о +23.2 +22.4 95 +32 +32 очень
душно
1004.6 1000.3
00 23.06 ЮВ 2 20 км н/о +23.7 +22.5 93 +31 +31 очень
душно
1004.4 1000.1 +21.7
01 23.06 В 1 20 км н/о +24.4 +22.7 90 +32 +32 очень
душно
1005.0 1000.7
02 23.06 ЮВ 1 20 км н/о +24.6 +22.1 86 +32 +32 очень
душно
1004.3 1000.0
03 23.06 В 2 20 км н/о +24.7 +21.8 84 +32 +32 очень
душно
1004.3 1000.0
04 23.06 В 2 20 км н/о +24.7 +21.8 84 +32 +32 очень
душно
1004.1 999.8
05 23.06 СВ 2 20 км н/о +24.4 +21.9 86 +31 +31 очень
душно
1004.3 1000.0
06 23.06 В 4 10 км в посл. час дождь н/о +24.3 +21.8 86 +31 +31 очень
душно
1004.0 999.7 0.0
07 23.06 В 5 10 км н/о +24.1 +21.4 85 +31 +31 очень
душно
1003.9 999.6
08 23.06 ЮВ 2 16 км н/о +23.7 +21.2 86 +30 +30 очень
душно
1003.8 999.5
10 23.06 Ю 2 20 км н/о +23.3 +20.5 84 +31 +31 очень
душно
1004.7 1000.4
11 23.06 ЮЗ 2 16 км слаб. дождь н/о +23.3 +21.2 88 +31 +31 очень
душно
1005.5 1001.2
12 23.06 Ю 2 13 км в посл. час дождь н/о +22.5 +21.1 92 +30 +30 очень
душно
1006.2 1001.9 +25.1 0.0
13 23.06 ЮЗ 2 9000 м дымка н/о +21.7 +21.0 96 +28 +28 душно 1006.9 1002.6
14 23.06 З 3 10 км н/о +22.3 +21.5 95 +29 +29 очень
душно
1007.0 1002.7
15 23.06 ЮЗ 2 8000 м дымка н/о +21.3 +20.8 97 +27 +27 душно 1007.0 1002.7
16 23.06 Ю 2 5000 м дымка н/о +20.8 +20.6 99 +27 +27 душно 1007.0 1002.6
17 23.06 В 2 5000 м дымка н/о +20.7 +20.4 98 +26 +26 душно 1007.2 1002.8
18 23.06 ЮВ 2 5000 м дымка н/о +20.7 +20.5 99 +26 +26 душно 1007.3 1002.9
19 23.06 ЮВ 2 5000 м дымка н/о +20.4 +20.2 99 +25 +25 комфорт 1007.7 1003.3
20 23.06 ЮВ 2 3700 м дымка н/о +19.4 +19.4 100 +23 +23 комфорт 1008.3 1003.9
21 23.06 ЮЗ 1 4400 м дымка н/о +19.8 +19.7 99 +24 +24 комфорт 1009.0 1004.6
22 23.06 ЮВ 1 6000 м дымка н/о +22.4 +21.9 97 +30 +30 очень
душно
1009.9 1005.6
23 23.06 С 1 10 км н/о +23.7 +20.8 84 +30 +30 очень
душно
1010.6 1006.3
00 24.06 СЗ 2 13 км н/о +24.5 +21.4 83 +31 +31 очень
душно
1010.6 1006.3 +19.3
01 24.06 З 3 13 км н/о +25.6 +21.5 78 +33 +33 очень
душно
1010.7 1006.4
02 24.06 З 2 17 км н/о +25.2 +18.9 68 +30 +30 душно 1010.8 1006.5
03 24.06 С 3 18 км н/о +25.8 +19.5 68 +31 +31 очень
душно
1010.8 1006.5
04 24.06 ЮВ 3 20 км н/о +27.3 +20.4 66 +34 +34 очень
душно
1010.8 1006.5
05 24.06 ЮВ 3 15 км н/о +27.4 +20.0 64 +34 +34 очень
душно
1011.1 1006.8
06 24.06 В 3 15 км н/о +27.2 +19.8 64 +33 +33 очень
душно
1011.0 1006.7
07 24.06 В 3 16 км н/о +26.6 +19.7 66 +32 +32 очень
душно
1010.9 1006.6
08 24.06 В 3 20 км н/о +25.5 +20.5 74 +32 +32 очень
душно
1011.0 1006.7
09 24.06 В 3 18 км н/о +24.9 +20.4 76 +31 +31 очень
душно
1011.5 1007.2
10 24.06 В 3 14 км н/о +24.0 +20.9 83 +30 +30 очень
душно
1012.0 1007.7
11 24.06 ЮВ 3 11 км н/о +23.2 +21.1 88 +31 +31 очень
душно
1012.9 1008.6
12 24.06 ЮВ 3 9000 м дымка н/о +22.6 +21.2 92 +30 +30 очень
душно
1013.5 1009.2 +27.8
13 24.06 В 2 8000 м дымка н/о +22.4 +21.4 94 +29 +29 очень
душно
1014.1 1009.7
14 24.06 В 2 7000 м дымка н/о +22.4 +21.4 94 +29 +29 очень
душно
1014.2 1009.8
15 24.06 В 2 6000 м дымка н/о +22.0 +21.3 96 +29 +29 очень
душно
1013.9 1009.5
16 24.06 СВ 1 5000 м дымка н/о +21.5 +21.0 97 +27 +27 душно 1013.8 1009.4
17 24.06 СВ 2 6000 м дымка н/о +21.5 +21.0 97 +27 +27 душно 1013.6 1009.2
18 24.06 В 2 6000 м дымка н/о +21.8 +21.1 96 +28 +28 душно 1013.4 1009.0
19 24.06 В 4 7000 м дымка н/о +22.6 +21.6 94 +30 +30 очень
душно
1013.0 1008.7
20 24.06 В 4 8000 м дымка н/о +22.9 +21.4 91 +30 +30 очень
душно
1013.3 1009.0
21 24.06 В 4 9000 м дымка н/о +23.1 +21.6 91 +31 +31 очень
душно
1013.7 1009.4
22 24.06 В 5 9000 м дымка н/о +23.9 +21.4 86 +30 +30 очень
душно
1014.1 1009.8
23 24.06 В 5 11 км н/о +24.0 +21.3 85 +30 +30 очень
душно
1014.6 1010.3
00 25.06 В 5 5000 м слаб. дождь н/о +23.0 +21.8 93 +31 +31 очень
душно
1014.7 1010.4 +21.3 0.0
01 25.06 В 5 4100 м слаб. дождь н/о +23.3 +21.8 91 +32 +32 очень
душно
1014.9 1010.6
02 25.06 В 5 11 км в посл. час дождь н/о +25.1 +21.8 82 +32 +32 очень
душно
1014.7 1010.4
03 25.06 В 6 12 км {дождь} н/о +25.1 +21.2 79 +32 +32 очень
душно
1014.3 1010.0
04 25.06 В 8 13 км н/о +25.7 +20.5 73 +32 +32 очень
душно
1013.6 1009.3
05 25.06 В 7 15 км н/о +25.6 +20.6 74 +32 +32 очень
душно
1013.4 1009.1
06 25.06 В 5 3200 м слаб. дождь н/о +23.6 +22.9 96 +31 +31 очень
душно
1013.5 1009.2 0.0
07 25.06 В 6 2400 м слаб. дождь н/о +22.8 +22.3 97 +31 +31 очень
душно
1013.5 1009.2
08 25.06 В 4 5000 м слаб. дождь н/о +23.0 +22.7 98 +32 +32 очень
душно
1013.4 1009.1
09 25.06 В 5 2700 м слаб. дождь н/о +22.9 +22.7 99 +31 +31 очень
душно
1013.5 1009.2
10 25.06 В 6 11 км слаб. дождь н/о +23.0 +22.8 99 +32 +32 очень
душно
1013.7 1009.4
11 25.06 ЮВ 3 4100 м слаб. дождь н/о +23.4 +23.4 100 +33 +33 очень
душно
1014.0 1009.7
12 25.06 ЮВ 4 3400 м дождь н/о +23.9 +23.9 100 +33 +33 очень
душно
1014.3 1010.0 +26.3 9
13 25.06 ЮВ 3 10 км слаб. дождь н/о +24.2 +24.2 100 +33 +33 очень
душно
1014.4 1010.1
14 25.06 ЮВ 2 17 км слаб. дождь н/о +24.2 +24.2 100 +33 +33 очень
душно
1014.5 1010.2
15 25.06 ЮВ 2 12 км в посл. час дождь н/о +24.2 +24.2 100 +33 +33 очень
душно
1013.8 1009.5
16 25.06 ЮВ 4 11 км н/о +24.2 +24.0 99 +33 +33 очень
душно
1013.1 1008.8
17 25.06 ЮВ 2 20 км в посл. час дождь н/о +24.0 +24.0 100 +33 +33 очень
душно
1012.3 1008.0

 

Местоположение метеостанции Танегасима (Япония): широта 30.73 долгота 130.98 высота над уровнем моря 18 м.

В архиве по умолчанию представлена погода на Танегасиме за последнюю неделю. Архивные данные за месяц целиком и за предыдущие месяцы, начиная с января 2011 года, Вы можете получить, выбрав интересующий диапазон дат из раскрывающегося списка и нажав кнопку "Ввод!".


*Определитесь, кто Вы:
робот инопланетянин человек

Внимание! Время в таблицах - всемирное. Для получения местного времени необходимо прибавить поправку, которая равна 9 ч.

Смотрите также архив погоды в соседних городах и на ближайших метеорологических станциях:

Погода на Якусиме (Япония) (50 км)
Погода в Макурадзаки (Япония) (88 км)
Погода в Кагосиме (Япония) (100 км)
Погода в Абурацу (Япония) (103 км)
Погода в Мияконодзё (Япония) (112 км)
Погода в Миядзаки (Япония) (140 км)
Погода в Ушибуке (Япония) (142 км)
Погода в Акуне (Япония) (163 км)
Погода в Хитоёси (Япония) (167 км)
Погода в Нобеоке (Япония) (215 км)

Пояснения к столбцам:

Ветер - указаны скорость ветра в м/с - средняя за 10 мин, порывы в срок и между сроками (в фигурных скобках) и направление, откуда дует ветер: С - северный, СВ - северо-восточный, В - восточный, ЮВ - юго-восточный, Ю - южный, ЮЗ - юго-западный, З - западный, СЗ - северо-западный.
Видимость - горизонтальная дальность видимости в метрах или километрах. При видимости от 1 до 10 км при отсутствии осадков обычно наблюдается дымка, при ухудшении видимости до 1 км и менее - туман. В сухую погоду видимость может ухудшаться дымом, пылью или мглою.
Явления - указаны атмосферные явления, наблюдавшиеся в срок или в последний час перед сроком; фигурными скобками обозначены явления, наблюдавшиеся между сроками (за 1-3 часа до срока); квадратными скобками обозначены град или гололедные отложения с указанием их диаметра в мм.
Облачность - указаны через наклонную черту общая и нижняя облачность в баллах и высота нижней границы облаков в метрах; квадратными скобками обозначены формы облаков: Ci - перистые, Cs - перисто-слоистые, Cc - перисто-кучевые, Ac - высококучевые, As - высокослоистые, Sc - слоисто-кучевые, Ns - слоисто-дождевые, Cu - кучевые, Cb - кучево-дождевые. Подробнее классификацию облаков см. в Атласе облаков (PDF).
T - Температура воздуха - температура, измеренная на высоте 2 м над землей.
Td - Температура точки росы - температура, при понижении до которой содержащийся в воздухе водяной пар достигнет насыщения.
f - Относительная влажность воздуха - влажноcть воздуха, измеренная на высоте 2 м над землей.
Te - Эффективная температура - температура, которую ощущает одетый по сезону человек в тени. Характеристика душности погоды. При расчете учитывается влияние влажности воздуха и скорости ветра на теплоощущения человека.
Tes - Эффективная температура на солнце - температура, которую ощущает человек, с поправкой на солнечный нагрев. Характеристика знойности погоды. Зависит от высоты солнца над горизонтом, облачности и скорости ветра. Ночью, в пасмурную погоду, а также при ветре 12 м/с и более поправка равна нулю.
P - Атмосферное давление - приведенное к уровню моря атмосферное давление.
Po - Атмосферное давление - измеренное на уровне метеостанции атмосферное давление.
Tmin - Минимальная температура - минимум температуры воздуха на высоте 2 м над землей.
Tmax - Максимальная температура - максимум температуры воздуха на высоте 2 м над землей.
R - Количество осадков - Количество выпавших осадков за период времени, мм. При наведении курсора мыши на число - период времени, за который выпало указанное количество осадков.
R24 - Количество осадков - Количество выпавших осадков за 24 часа, мм.
S - Снежный покров - Высота снежного покрова, см. При наведении курсора мыши на число - состояние снежного покрова и степень покрытия местности в баллах.